GW4086 Weather Reports


time (UTC)temp
F
wind
direction
speed
knots
gust
knots
rain 1hr
in
rain 24hr
in
rain mn
in
humidity
%
barometer
mb
20260505153102 42 290 6.1 8.7 0.00 0.00 0.00 56 1020.0
20260505151607 42 300 4.3 7.8 0.00 0.00 0.00 58 1019.9
20260505140113 43 265 4.3 7.8 0.00 0.00 0.00 56 1019.7
20260505124550 40 280 1.7 5.2 0.00 0.00 0.00 53 1019.3
20260505123056 40 300 1.7 3.5 0.00 0.00 0.00 53 1019.2
20260505121551 40 340 1.7 2.6 0.00 0.00 0.00 52 1019.2
20260505120055 40 327 0.9 4.3 0.00 0.00 0.00 50 1019.1
20260505114558 40 44 0.9 3.5 0.00 0.00 0.00 49 1019.0
20260505113107 41 0 0.9 2.6 0.00 0.00 0.00 50 1018.9
20260505111552 41 0 0.0 1.7 0.00 0.00 0.00 50 1018.9
20260505101555 40 0 0.0 0.0 0.00 0.00 0.00 53 1018.4
20260505100055 40 0 0.0 0.9 0.00 0.00 0.00 53 1018.3
20260505094557 39 0 0.0 1.7 0.00 0.00 0.00 52 1018.3
20260505093100 39 0 0.0 0.0 0.00 0.00 0.00 53 1018.1
20260505091603 40 0 0.0 0.0 0.00 0.00 0.00 54 1018.1
20260505090054 40 0 0.0 0.9 0.00 0.00 0.00 53 1018.0
20260505084554 39 0 0.0 0.9 0.00 0.00 0.00 53 1018.3
20260505083058 40 0 0.0 0.9 0.00 0.00 0.00 52 1018.3
20260505081604 40 0 0.0 2.6 0.00 0.00 0.00 50 1018.2
20260505080053 39 0 0.0 0.9 0.00 0.00 0.00 52 1018.2
20260505074549 39 250 0.9 1.7 0.00 0.00 0.00 51 1018.0
20260505073106 39 0 0.0 0.9 0.00 0.00 0.00 51 1018.1
20260505071559 40 35 0.0 1.7 0.00 0.00 0.00 49 1018.0
20260505070101 40 0 0.0 0.9 0.00 0.00 0.00 49 1018.2
20260505064552 40 0 0.0 1.7 0.00 0.00 0.00 49 1018.1
20260505063056 40 0 0.0 2.6 0.00 0.00 0.00 49 1017.9
20260505061554 41 0 0.0 0.9 0.00 0.00 0.00 48 1017.8
20260505060059 41 0 0.0 1.7 0.00 0.00 0.00 47 1017.8
20260505054558 41 0 0.0 1.7 0.00 0.00 0.00 46 1017.8
20260505053056 41 118 0.0 1.7 0.00 0.00 0.00 46 1017.6
20260505051605 42 82 1.7 6.1 0.00 0.00 0.00 45 1017.5
20260505050105 42 60 2.6 8.7 0.00 0.00 0.00 44 1017.5
20260505041557 44 41 1.7 9.6 0.00 0.00 0.00 41 1017.1
20260505040054 45 65 5.2 8.7 0.00 0.00 0.00 40 1017.0
20260505034554 45 22 2.6 7.8 0.00 0.00 0.00 40 1017.0
20260505033053 46 291 5.2 10.4 0.00 0.00 0.00 39 1016.8
20260505031555 46 63 4.3 10.4 0.00 0.00 0.00 37 1016.5
20260505030058 48 32 4.3 8.7 0.00 0.00 0.00 34 1016.2
20260505024600 49 40 5.2 11.3 0.00 0.00 0.00 32 1016.0
20260505023054 51 23 5.2 10.4 0.00 0.00 0.00 27 1015.7
20260505021551 52 58 5.2 11.3 0.00 0.00 0.00 24 1015.4
20260505020054 54 342 4.3 13.9 0.00 0.00 0.00 22 1015.2
20260505014557 55 342 4.3 13.0 0.00 0.00 0.00 20 1015.1
20260505013102 55 319 9.6 14.8 0.00 0.00 0.00 20 1014.8
20260505011556 56 316 7.0 17.4 0.00 0.00 0.00 20 1014.7
20260505010115 56 312 9.6 16.5 0.00 0.00 0.00 20 1014.7
20260505004552 56 308 8.7 18.2 0.00 0.00 0.00 20 1014.8
20260505003053 57 321 12.2 20.0 0.00 0.00 0.00 21 1014.9
20260505001552 56 341 10.4 20.0 0.00 0.00 0.00 21 1014.8
20260505000100 56 321 12.2 19.1 0.00 0.00 0.00 21 1014.8
20260504234554 57 302 10.4 19.1 0.00 0.00 0.00 22 1014.9
20260504233101 57 331 10.4 19.1 0.00 0.00 0.00 23 1014.8
20260504231552 57 297 9.6 19.1 0.00 0.00 0.00 25 1014.6
20260504230100 55 317 13.9 20.9 0.00 0.00 0.00 26 1015.0
20260504224552 55 322 7.8 14.8 0.00 0.00 0.00 28 1015.0
20260504223102 55 297 7.8 17.4 0.00 0.00 0.00 29 1015.0
20260504221558 55 319 8.7 17.4 0.00 0.00 0.00 28 1015.0
20260504214615 55 325 9.6 17.4 0.00 0.00 0.00 29 1014.9
20260504213121 55 352 11.3 18.2 0.00 0.00 0.00 28 1014.9
20260504211601 56 315 12.2 20.0 0.00 0.00 0.00 29 1014.9
20260504204555 56 324 10.4 16.5 0.00 0.00 0.00 28 1014.9
20260504203105 57 352 10.4 20.9 0.00 0.00 0.00 29 1014.8
20260504201613 57 320 12.2 18.2 0.00 0.00 0.00 29 1014.8
20260504200111 57 345 10.4 16.5 0.00 0.00 0.00 31 1014.8
20260504194602 57 301 13.9 20.0 0.00 0.00 0.00 30 1014.9
20260504193051 57 292 10.4 17.4 0.00 0.00 0.00 29 1014.9
20260504191608 58 311 11.3 18.2 0.00 0.00 0.00 29 1014.9
20260504190114 57 308 13.0 19.1 0.00 0.00 0.00 29 1015.0
20260504184622 57 317 9.6 19.1 0.00 0.00 0.00 32 1015.1
20260504183056 56 297 8.7 15.6 0.00 0.00 0.00 31 1015.1
20260504181600 57 315 7.8 17.4 0.00 0.00 0.00 34 1015.2
20260504180056 56 288 10.4 15.6 0.00 0.00 0.00 33 1015.2
20260504174554 55 306 10.4 19.1 0.00 0.00 0.00 34 1015.3
20260504173055 56 300 12.2 17.4 0.00 0.00 0.00 34 1015.2
20260504171605 55 314 11.3 16.5 0.00 0.00 0.00 37 1015.2